Location: Boncourt
(49.6160°N, 3.9448°E)
Time: 10:01:12
(UTC+00:00)

ATLAS 5 CENTAUR R/B - Pass Details

Date: 09 February 2023
Orbit: 460 x 1178 km, 63.3° (Epoch: 19 March)

Event Time Altitude Azimuth Distance (km) Brightness Sun altitude
Rises 18:05:41 0° 313° (NW) 2,820 5.5 -12.2°
Reaches altitude 10° 18:08:24 10° 333° (NNW) 2,033 4.5 -12.7°
Maximum altitude 18:11:39 19° 18° (NNE) 1,676 3.5 -13.2°
Enters shadow 18:14:00 14° 50° (NE) 2,008 3.7 -13.6°
